User: anonymous   Login
Location: Unspecified
(0.0000°N, 0.0000°E)
Time: 17:16:02
(UTC+01:00)
Language:

Cosmos 1980 Rocket - Orbit

View from above orbital plane
View from above orbital plane
View from above satellite
View from above satellite

Ground track
Ground track

The orbit data is extracted from the following two-line orbital elements,

1 19650U 88102B   16339.49616296  .00000103  00000-0  76710-4 0  9994
2 19650  70.9995  64.4764 0012411 124.7167 235.5127 14.15750292448434
Epoch (UTC): 04 December 2016 11:54:28
Eccentricity: 0.0012411
inclination: 70.9995°
perigee height: 831 km
apogee height: 849 km
right ascension of ascending node: 64.4764°
argument of perigee: 124.7167°
revolutions per day: 14.15750292
mean anomaly at epoch: 235.5127°
orbit number at epoch: 44843

The dashed part of the orbit path shows where the satellite is in the earth's shadow,  

DLR